Track COSMOS 2426 (GLONASS) now! COSMOS 2426 (GLONASS) is classified as:
1 29671U 06062B 25186.11425302 .00000107 00000-0 00000-0 0 9997 2 29671 64.6987 206.0693 0021668 181.4135 179.8287 2.12963597144161